DHK6773 LPPR-EGLL

Flight info

Callsign DHK6773
Flight time 1h 53m
Altitude 34000
Route TURON P600 ASDEB DCT KORUL DCT FEJAC DCT JSY DCT REVTU UP87 ROXOG
Aircraft A306/H-SDE3FGHIRWY/LB1

Departure

Time 2026-05-07 18:37
Airport Francisco de Sá Carneiro Airport (LPPR)

Arrival

Time 2026-05-07 20:31
Airport London Heathrow Airport (EGLL)
Time Latitude Longitude Altitude Speed Heading
2026-05-07 18:02 41.24105 -8.67328 248 ft 0 kts 79°
2026-05-07 18:12 41.24105 -8.67329 248 ft 0 kts 79°
2026-05-07 18:25 41.24103 -8.67344 248 ft 4 kts 79°
2026-05-07 18:26 41.24098 -8.67379 248 ft 4 kts 82°
2026-05-07 18:26 41.24095 -8.67415 248 ft 4 kts 95°
2026-05-07 18:26 41.24102 -8.67444 248 ft 3 kts 149°
2026-05-07 18:26 41.24106 -8.67447 248 ft 0 kts 157°
2026-05-07 18:29 41.24088 -8.67438 248 ft 7 kts 161°
2026-05-07 18:30 41.24013 -8.67427 248 ft 13 kts 187°
2026-05-07 18:30 41.23928 -8.67475 244 ft 14 kts 198°
2026-05-07 18:30 41.23828 -8.67475 243 ft 14 kts 171°
2026-05-07 18:30 41.23739 -8.67448 243 ft 12 kts 168°
2026-05-07 18:31 41.23653 -8.67429 243 ft 13 kts 171°
2026-05-07 18:31 41.23552 -8.67406 243 ft 17 kts 169°
2026-05-07 18:31 41.23431 -8.67375 243 ft 14 kts 168°
2026-05-07 18:31 41.23348 -8.67410 241 ft 11 kts 234°
2026-05-07 18:32 41.23321 -8.67490 241 ft 7 kts 258°
2026-05-07 18:32 41.23313 -8.67550 242 ft 6 kts 259°
2026-05-07 18:32 41.23310 -8.67571 242 ft 0 kts 258°
2026-05-07 18:35 41.23307 -8.67592 243 ft 6 kts 260°
2026-05-07 18:35 41.23296 -8.67678 245 ft 12 kts 267°
2026-05-07 18:35 41.23342 -8.67740 246 ft 10 kts 340°
2026-05-07 18:36 41.23403 -8.67758 244 ft 1 kts 348°
2026-05-07 18:36 41.23412 -8.67760 244 ft 3 kts 348°
2026-05-07 18:36 41.23498 -8.67780 240 ft 39 kts 348°
2026-05-07 18:36 41.23996 -8.67913 227 ft 104 kts 349°
2026-05-07 18:37 41.24882 -8.68151 216 ft 155 kts 351°
2026-05-07 18:37 41.26052 -8.68422 468 ft 181 kts 352°
2026-05-07 18:37 41.27371 -8.68632 901 ft 203 kts 352°
2026-05-07 18:37 41.28729 -8.68967 936 ft 190 kts 346°
2026-05-07 18:38 41.30124 -8.69405 973 ft 227 kts 346°
2026-05-07 18:38 41.31752 -8.69890 1314 ft 254 kts 346°
2026-05-07 18:38 41.33495 -8.70376 2237 ft 257 kts 345°
2026-05-07 18:38 41.35246 -8.70851 3223 ft 257 kts 347°
2026-05-07 18:39 41.37013 -8.71321 4036 ft 263 kts 347°
2026-05-07 18:39 41.38836 -8.71805 4814 ft 270 kts 347°
2026-05-07 18:39 41.40698 -8.72297 5556 ft 276 kts 347°
2026-05-07 18:39 41.42643 -8.72586 6207 ft 288 kts
2026-05-07 18:40 41.44659 -8.72247 6882 ft 294 kts
2026-05-07 18:40 41.46670 -8.71732 7653 ft 295 kts 11°
2026-05-07 18:40 41.48691 -8.71207 8393 ft 297 kts 11°
2026-05-07 18:40 41.50726 -8.70693 9101 ft 300 kts 11°
2026-05-07 18:41 41.52787 -8.70172 9776 ft 304 kts 11°
2026-05-07 18:41 41.54883 -8.69642 10398 ft 307 kts 11°
2026-05-07 18:41 41.56986 -8.69109 11044 ft 309 kts 11°
2026-05-07 18:41 41.59105 -8.68571 11668 ft 311 kts 11°
2026-05-07 18:42 41.61240 -8.68028 12297 ft 313 kts 11°
2026-05-07 18:42 41.63385 -8.67482 12890 ft 315 kts 12°
2026-05-07 18:42 41.65557 -8.66928 13471 ft 318 kts 11°
2026-05-07 18:42 41.67740 -8.66371 14019 ft 321 kts 11°
2026-05-07 18:43 41.69938 -8.65810 14535 ft 323 kts 11°
2026-05-07 18:43 41.72127 -8.65252 15013 ft 325 kts 11°
2026-05-07 18:43 41.74361 -8.64680 15529 ft 327 kts 11°
2026-05-07 18:43 41.76618 -8.64102 15887 ft 334 kts 11°
2026-05-07 18:44 41.78939 -8.63508 16146 ft 344 kts 11°
2026-05-07 18:44 41.81321 -8.62897 16391 ft 353 kts 11°
2026-05-07 18:44 41.83758 -8.62272 16688 ft 360 kts 11°
2026-05-07 18:44 41.86242 -8.61635 17069 ft 364 kts 11°
2026-05-07 18:45 41.88738 -8.60995 17471 ft 366 kts 11°
2026-05-07 18:45 41.91245 -8.60351 17897 ft 368 kts 11°
2026-05-07 18:45 41.93769 -8.59702 18294 ft 370 kts 11°
2026-05-07 18:45 41.96273 -8.59057 18639 ft 372 kts 11°
2026-05-07 18:46 41.98857 -8.58392 18990 ft 374 kts 11°
2026-05-07 18:46 42.01387 -8.57739 19320 ft 376 kts 11°
2026-05-07 18:46 42.03979 -8.57071 19544 ft 381 kts 11°
2026-05-07 18:46 42.06596 -8.56406 19838 ft 384 kts
2026-05-07 18:47 42.09245 -8.55859 20149 ft 386 kts
2026-05-07 18:47 42.11915 -8.55411 20512 ft 386 kts
2026-05-07 18:47 42.14596 -8.55009 20815 ft 389 kts
2026-05-07 18:47 42.17287 -8.54616 21152 ft 390 kts
2026-05-07 18:48 42.19992 -8.54216 21493 ft 391 kts
2026-05-07 18:48 42.22703 -8.53806 21812 ft 393 kts
2026-05-07 18:48 42.25423 -8.53384 22132 ft 393 kts
2026-05-07 18:48 42.28140 -8.52954 22540 ft 395 kts
2026-05-07 18:49 42.30881 -8.52518 22967 ft 396 kts
2026-05-07 18:49 42.33607 -8.52081 23386 ft 398 kts
2026-05-07 18:49 42.36340 -8.51643 23727 ft 400 kts
2026-05-07 18:49 42.39112 -8.51198 24031 ft 402 kts
2026-05-07 18:50 42.41894 -8.50753 24338 ft 404 kts
2026-05-07 18:50 42.44697 -8.50304 24634 ft 406 kts
2026-05-07 18:50 42.47513 -8.49849 24928 ft 408 kts
2026-05-07 18:50 42.50321 -8.49157 25216 ft 412 kts 11°
2026-05-07 18:51 42.53065 -8.48011 25540 ft 414 kts 18°
2026-05-07 18:51 42.55726 -8.46501 25974 ft 414 kts 21°
2026-05-07 18:51 42.58345 -8.44884 26348 ft 413 kts 22°
2026-05-07 18:51 42.60949 -8.43201 26760 ft 413 kts 23°
2026-05-07 18:52 42.63528 -8.41501 27146 ft 413 kts 23°
2026-05-07 18:52 42.66113 -8.39790 27465 ft 415 kts 23°
2026-05-07 18:52 42.68723 -8.38065 27703 ft 419 kts 22°
2026-05-07 18:52 42.71365 -8.36325 27917 ft 423 kts 22°
2026-05-07 18:53 42.74000 -8.34594 28162 ft 427 kts 22°
2026-05-07 18:53 42.76685 -8.32832 28369 ft 429 kts 22°
2026-05-07 18:53 42.79381 -8.31065 28585 ft 432 kts 22°
2026-05-07 18:53 42.82099 -8.29281 28766 ft 435 kts 21°
2026-05-07 18:54 42.84839 -8.27482 28961 ft 437 kts 21°
2026-05-07 18:54 42.87589 -8.25676 29134 ft 440 kts 21°
2026-05-07 18:54 42.90346 -8.23863 29340 ft 442 kts 21°
2026-05-07 18:54 42.93128 -8.22031 29522 ft 444 kts 21°
2026-05-07 18:55 42.95917 -8.20191 29733 ft 446 kts 21°
2026-05-07 18:55 42.98711 -8.18346 29924 ft 447 kts 21°
2026-05-07 18:55 43.01519 -8.16490 30122 ft 448 kts 21°
2026-05-07 18:55 43.04326 -8.14632 30329 ft 448 kts 21°
2026-05-07 18:56 43.07133 -8.12772 30542 ft 448 kts 21°
2026-05-07 18:56 43.09908 -8.10932 30771 ft 449 kts 21°
2026-05-07 18:56 43.12717 -8.09069 30986 ft 449 kts 21°
2026-05-07 18:56 43.15525 -8.07203 31271 ft 448 kts 21°
2026-05-07 18:57 43.18316 -8.05346 31619 ft 445 kts 21°
2026-05-07 18:57 43.21097 -8.03493 31895 ft 445 kts 21°
2026-05-07 18:57 43.23881 -8.01639 32159 ft 444 kts 21°
2026-05-07 18:57 43.26657 -7.99788 32442 ft 444 kts 21°
2026-05-07 18:58 43.29435 -7.97934 32724 ft 444 kts 20°
2026-05-07 18:58 43.32218 -7.96074 33003 ft 444 kts 20°
2026-05-07 18:58 43.35001 -7.94213 33287 ft 444 kts 20°
2026-05-07 18:58 43.37772 -7.92358 33675 ft 442 kts 20°
2026-05-07 18:59 43.40536 -7.90506 33866 ft 443 kts 20°
2026-05-07 18:59 43.46108 -7.86768 33889 ft 449 kts 20°
2026-05-07 19:00 43.51764 -7.82971 33889 ft 461 kts 20°
2026-05-07 19:00 43.57568 -7.79058 33898 ft 466 kts 21°
2026-05-07 19:01 43.63393 -7.75115 33884 ft 465 kts 21°
2026-05-07 19:01 43.69212 -7.71171 33884 ft 465 kts 21°
2026-05-07 19:02 43.74987 -7.67253 33886 ft 465 kts 21°
2026-05-07 19:02 43.80800 -7.63300 33888 ft 464 kts 21°
2026-05-07 19:03 43.86596 -7.59347 33891 ft 463 kts 20°
2026-05-07 19:03 43.92374 -7.55399 33894 ft 461 kts 20°
2026-05-07 19:04 43.98084 -7.51491 33916 ft 461 kts 20°
2026-05-07 19:04 44.03829 -7.47552 33897 ft 460 kts 20°
2026-05-07 19:05 44.09566 -7.43608 33895 ft 460 kts 20°
2026-05-07 19:05 44.14343 -7.40318 33898 ft 460 kts 20°
2026-05-07 19:06 44.21025 -7.35705 33907 ft 459 kts 20°
2026-05-07 19:06 44.28666 -7.30414 33901 ft 458 kts 20°
2026-05-07 19:07 44.34377 -7.26452 33906 ft 458 kts 21°
2026-05-07 19:07 44.40087 -7.22482 33917 ft 458 kts 21°
2026-05-07 19:08 44.45783 -7.18510 33907 ft 456 kts 21°
2026-05-07 19:08 44.51426 -7.14566 33912 ft 456 kts 21°
2026-05-07 19:09 44.57098 -7.10596 33911 ft 456 kts 21°
2026-05-07 19:09 44.62768 -7.06618 33910 ft 456 kts 21°
2026-05-07 19:10 44.68438 -7.02632 33917 ft 456 kts 21°
2026-05-07 19:10 44.74112 -6.98633 33919 ft 456 kts 21°
2026-05-07 19:11 44.79788 -6.94624 33933 ft 456 kts 21°
2026-05-07 19:11 44.85262 -6.90160 33924 ft 461 kts 28°
2026-05-07 19:12 44.90531 -6.84989 33933 ft 462 kts 30°
2026-05-07 19:12 44.95745 -6.79701 33928 ft 460 kts 30°
2026-05-07 19:13 45.00939 -6.74409 33935 ft 460 kts 30°
2026-05-07 19:13 45.06139 -6.69122 33931 ft 460 kts 30°
2026-05-07 19:14 45.11338 -6.63834 33931 ft 460 kts 30°
2026-05-07 19:14 45.16502 -6.58572 33938 ft 460 kts 30°
2026-05-07 19:15 45.21701 -6.53260 33951 ft 459 kts 30°
2026-05-07 19:15 45.26884 -6.47951 33936 ft 458 kts 30°
2026-05-07 19:16 45.32046 -6.42653 33946 ft 458 kts 30°
2026-05-07 19:16 45.37213 -6.37339 33941 ft 458 kts 30°
2026-05-07 19:17 45.42338 -6.32055 33949 ft 458 kts 30°
2026-05-07 19:17 45.47499 -6.26720 33946 ft 458 kts 30°
2026-05-07 19:18 45.52661 -6.21373 33934 ft 458 kts 31°
2026-05-07 19:18 45.57833 -6.16001 33937 ft 458 kts 31°
2026-05-07 19:19 45.62958 -6.10667 33948 ft 458 kts 31°
2026-05-07 19:19 45.68121 -6.05281 33950 ft 459 kts 31°
2026-05-07 19:20 45.73275 -5.99892 33953 ft 459 kts 31°
2026-05-07 19:20 45.78428 -5.94491 33954 ft 459 kts 31°
2026-05-07 19:21 45.83579 -5.89080 33962 ft 460 kts 32°
2026-05-07 19:21 45.88750 -5.83636 33958 ft 461 kts 32°
2026-05-07 19:22 45.93921 -5.78177 33958 ft 462 kts 32°
2026-05-07 19:22 45.99063 -5.72736 33961 ft 462 kts 32°
2026-05-07 19:23 46.04232 -5.67254 33970 ft 462 kts 32°
2026-05-07 19:23 46.09409 -5.61751 33964 ft 462 kts 32°
2026-05-07 19:24 46.14588 -5.56233 33971 ft 462 kts 32°
2026-05-07 19:24 46.19767 -5.50702 33972 ft 463 kts 32°
2026-05-07 19:25 46.24946 -5.45157 33970 ft 463 kts 32°
2026-05-07 19:25 46.30094 -5.39633 33972 ft 464 kts 32°
2026-05-07 19:26 46.35271 -5.34063 33977 ft 464 kts 33°
2026-05-07 19:26 46.40453 -5.28474 33972 ft 464 kts 33°
2026-05-07 19:27 46.45632 -5.22876 33992 ft 464 kts 33°
2026-05-07 19:27 46.50808 -5.17267 33977 ft 464 kts 33°
2026-05-07 19:28 46.55979 -5.11648 33977 ft 464 kts 33°
2026-05-07 19:28 46.61119 -5.06050 33977 ft 464 kts 33°
2026-05-07 19:29 46.66285 -5.00411 33980 ft 464 kts 33°
2026-05-07 19:29 46.71444 -4.94765 33985 ft 464 kts 33°
2026-05-07 19:30 46.76606 -4.89102 33985 ft 464 kts 33°
2026-05-07 19:30 46.81762 -4.83433 33985 ft 463 kts 33°
2026-05-07 19:31 46.86905 -4.77763 33989 ft 463 kts 33°
2026-05-07 19:31 46.92044 -4.72083 33988 ft 464 kts 33°
2026-05-07 19:32 46.97195 -4.66376 33988 ft 464 kts 33°
2026-05-07 19:32 47.02340 -4.60661 33988 ft 464 kts 34°
2026-05-07 19:33 47.07486 -4.54931 33989 ft 464 kts 34°
2026-05-07 19:33 47.12600 -4.49224 33988 ft 465 kts 34°
2026-05-07 19:34 47.17766 -4.43445 33994 ft 466 kts 34°
2026-05-07 19:34 47.22917 -4.37666 33993 ft 466 kts 34°
2026-05-07 19:35 47.28074 -4.31866 33991 ft 466 kts 34°
2026-05-07 19:35 47.33226 -4.26058 33984 ft 466 kts 34°
2026-05-07 19:36 47.38360 -4.20256 33996 ft 467 kts 34°
2026-05-07 19:36 47.43520 -4.14410 33997 ft 467 kts 34°
2026-05-07 19:37 47.48665 -4.08564 33998 ft 466 kts 34°
2026-05-07 19:37 47.53793 -4.02725 33999 ft 466 kts 35°
2026-05-07 19:38 47.58943 -3.96846 33996 ft 467 kts 35°
2026-05-07 19:38 47.64093 -3.90950 33997 ft 467 kts 35°
2026-05-07 19:39 47.69185 -3.85104 33994 ft 464 kts 35°
2026-05-07 19:39 47.74278 -3.79244 34005 ft 463 kts 35°
2026-05-07 19:40 47.79404 -3.73336 33994 ft 464 kts 36°
2026-05-07 19:40 47.84472 -3.67476 33992 ft 465 kts 36°
2026-05-07 19:41 47.89578 -3.61556 33996 ft 464 kts 36°
2026-05-07 19:41 47.94679 -3.55626 33995 ft 464 kts 36°
2026-05-07 19:42 47.99785 -3.49678 33997 ft 465 kts 36°
2026-05-07 19:42 48.04856 -3.43752 33999 ft 466 kts 36°
2026-05-07 19:43 48.09962 -3.37771 33996 ft 466 kts 37°
2026-05-07 19:43 48.15054 -3.31791 33999 ft 465 kts 37°
2026-05-07 19:44 48.20148 -3.25793 34002 ft 466 kts 37°
2026-05-07 19:44 48.25247 -3.19775 33997 ft 467 kts 37°
2026-05-07 19:45 48.30353 -3.13732 33997 ft 467 kts 37°
2026-05-07 19:45 48.35452 -3.07681 34002 ft 467 kts 37°
2026-05-07 19:46 48.40537 -3.01630 34006 ft 467 kts 38°
2026-05-07 19:46 48.45602 -2.95589 33999 ft 468 kts 38°
2026-05-07 19:47 48.50713 -2.89476 33999 ft 468 kts 38°
2026-05-07 19:47 48.55817 -2.83354 33991 ft 468 kts 38°
2026-05-07 19:48 48.60908 -2.77233 34002 ft 468 kts 38°
2026-05-07 19:48 48.66008 -2.71083 33998 ft 469 kts 38°
2026-05-07 19:49 48.71105 -2.64923 33997 ft 469 kts 38°
2026-05-07 19:49 48.76169 -2.58785 33995 ft 469 kts 39°
2026-05-07 19:50 48.81307 -2.52667 34002 ft 469 kts 37°
2026-05-07 19:50 48.86495 -2.46628 34001 ft 469 kts 37°
2026-05-07 19:51 48.91679 -2.40589 34006 ft 469 kts 37°
2026-05-07 19:51 48.96815 -2.34571 34010 ft 469 kts 37°
2026-05-07 19:52 49.01988 -2.28482 34014 ft 469 kts 38°
2026-05-07 19:52 49.06272 -2.23425 34028 ft 469 kts 38°
2026-05-07 19:53 49.11425 -2.17327 34017 ft 467 kts 38°
2026-05-07 19:53 49.16555 -2.11241 34020 ft 466 kts 38°
2026-05-07 19:54 49.21712 -2.05248 34019 ft 466 kts 33°
2026-05-07 19:54 49.27294 -2.00212 34017 ft 466 kts 29°
2026-05-07 19:55 49.32966 -1.95376 34017 ft 465 kts 28°
2026-05-07 19:55 49.38604 -1.90616 34019 ft 465 kts 28°
2026-05-07 19:56 49.44277 -1.85800 34024 ft 465 kts 28°
2026-05-07 19:56 49.49940 -1.80964 34019 ft 465 kts 28°
2026-05-07 19:57 49.55602 -1.76110 34022 ft 465 kts 28°
2026-05-07 19:57 49.61570 -1.72361 34022 ft 463 kts 12°
2026-05-07 19:58 49.67908 -1.70606 34023 ft 463 kts
2026-05-07 19:58 49.74222 -1.69063 34032 ft 463 kts
2026-05-07 19:59 49.80597 -1.67515 34026 ft 464 kts
2026-05-07 19:59 49.86975 -1.65965 34029 ft 464 kts
2026-05-07 20:00 49.93357 -1.64409 34037 ft 464 kts
2026-05-07 20:00 49.99722 -1.62854 34041 ft 464 kts
2026-05-07 20:01 50.06130 -1.61285 34038 ft 469 kts
2026-05-07 20:01 50.12627 -1.59689 34036 ft 474 kts
2026-05-07 20:02 50.19107 -1.58093 34044 ft 474 kts
2026-05-07 20:02 50.22357 -1.57290 33612 ft 473 kts
2026-05-07 20:02 50.25605 -1.56454 32924 ft 470 kts 10°
2026-05-07 20:03 50.28761 -1.55180 32407 ft 465 kts 15°
2026-05-07 20:03 50.31831 -1.53712 31863 ft 460 kts 16°
2026-05-07 20:03 50.34878 -1.52217 31329 ft 455 kts 16°
2026-05-07 20:03 50.37889 -1.50735 30778 ft 450 kts 16°
2026-05-07 20:04 50.40891 -1.49258 29817 ft 455 kts 16°
2026-05-07 20:04 50.43912 -1.47771 28982 ft 451 kts 16°
2026-05-07 20:04 50.46845 -1.46325 28540 ft 432 kts 16°
2026-05-07 20:04 50.49618 -1.44956 28158 ft 415 kts 16°
2026-05-07 20:05 50.52352 -1.43596 27709 ft 401 kts 18°
2026-05-07 20:05 50.54872 -1.41932 27140 ft 394 kts 26°
2026-05-07 20:05 50.57294 -1.39926 26635 ft 392 kts 28°
2026-05-07 20:05 50.59693 -1.37865 25940 ft 392 kts 28°
2026-05-07 20:06 50.62076 -1.35807 25190 ft 390 kts 28°
2026-05-07 20:06 50.64458 -1.33752 24404 ft 390 kts 28°
2026-05-07 20:06 50.66833 -1.31704 23623 ft 389 kts 28°
2026-05-07 20:06 50.69199 -1.29662 22720 ft 387 kts 28°
2026-05-07 20:07 50.71556 -1.27627 21842 ft 385 kts 28°
2026-05-07 20:07 50.73899 -1.25603 20979 ft 382 kts 28°
2026-05-07 20:07 50.76216 -1.23561 20162 ft 379 kts 30°
2026-05-07 20:07 50.78436 -1.21355 19425 ft 374 kts 32°
2026-05-07 20:08 50.80603 -1.19119 18700 ft 370 kts 32°
2026-05-07 20:08 50.82738 -1.16908 17928 ft 365 kts 32°
2026-05-07 20:08 50.84852 -1.14718 17139 ft 361 kts 32°
2026-05-07 20:08 50.86941 -1.12556 16356 ft 356 kts 33°
2026-05-07 20:09 50.88972 -1.10453 15741 ft 348 kts 33°
2026-05-07 20:09 50.90964 -1.08390 15355 ft 335 kts 33°
2026-05-07 20:09 50.92879 -1.06404 14973 ft 322 kts 33°
2026-05-07 20:10 50.96506 -1.02639 14256 ft 299 kts 33°
2026-05-07 20:10 50.98225 -1.00853 13928 ft 294 kts 33°
2026-05-07 20:10 50.99923 -0.99030 13537 ft 294 kts 37°
2026-05-07 20:10 51.01430 -0.96850 13162 ft 292 kts 46°
2026-05-07 20:11 51.02799 -0.94471 13057 ft 292 kts 48°
2026-05-07 20:11 51.04129 -0.92095 13062 ft 290 kts 49°
2026-05-07 20:11 51.05463 -0.89710 12692 ft 288 kts 48°
2026-05-07 20:11 51.06796 -0.87328 12108 ft 287 kts 48°
2026-05-07 20:12 51.08114 -0.84974 11565 ft 284 kts 47°
2026-05-07 20:12 51.09420 -0.82640 11026 ft 281 kts 47°
2026-05-07 20:12 51.10714 -0.80329 10486 ft 278 kts 47°
2026-05-07 20:12 51.11996 -0.78036 9958 ft 276 kts 46°
2026-05-07 20:13 51.13268 -0.75762 9395 ft 273 kts 47°
2026-05-07 20:13 51.14514 -0.73532 9102 ft 265 kts 47°
2026-05-07 20:13 51.15717 -0.71376 9072 ft 258 kts 47°
2026-05-07 20:13 51.16909 -0.69239 9070 ft 258 kts 47°
2026-05-07 20:14 51.18105 -0.67093 9074 ft 258 kts 47°
2026-05-07 20:14 51.19293 -0.64960 9075 ft 258 kts 47°
2026-05-07 20:14 51.20493 -0.62804 9077 ft 258 kts 47°
2026-05-07 20:14 51.21683 -0.60662 9071 ft 258 kts 47°
2026-05-07 20:15 51.22875 -0.58517 9085 ft 258 kts 47°
2026-05-07 20:15 51.24069 -0.56363 9071 ft 258 kts 47°
2026-05-07 20:15 51.25258 -0.54218 9073 ft 258 kts 47°
2026-05-07 20:15 51.26353 -0.51989 9065 ft 260 kts 61°
2026-05-07 20:16 51.26901 -0.49252 9077 ft 260 kts 78°
2026-05-07 20:16 51.27206 -0.46402 9067 ft 260 kts 81°
2026-05-07 20:16 51.27489 -0.43546 9069 ft 260 kts 81°
2026-05-07 20:16 51.27769 -0.40698 9073 ft 260 kts 81°
2026-05-07 20:17 51.28049 -0.37843 9072 ft 260 kts 81°
2026-05-07 20:17 51.28329 -0.34984 9074 ft 260 kts 81°
2026-05-07 20:17 51.28609 -0.32136 8742 ft 260 kts 81°
2026-05-07 20:17 51.28888 -0.29289 8267 ft 256 kts 81°
2026-05-07 20:18 51.29147 -0.26625 8085 ft 253 kts 81°
2026-05-07 20:18 51.29602 -0.23921 8064 ft 252 kts 62°
2026-05-07 20:18 51.30763 -0.21875 8069 ft 249 kts 31°
2026-05-07 20:18 51.32385 -0.21007 7943 ft 245 kts
2026-05-07 20:19 51.34025 -0.21455 7414 ft 244 kts 333°
2026-05-07 20:19 51.35279 -0.23186 7124 ft 239 kts 302°
2026-05-07 20:19 51.35869 -0.25656 7079 ft 239 kts 283°
2026-05-07 20:19 51.36221 -0.28251 7072 ft 239 kts 281°
2026-05-07 20:20 51.36554 -0.30850 7073 ft 238 kts 281°
2026-05-07 20:20 51.36887 -0.33443 7076 ft 238 kts 281°
2026-05-07 20:20 51.37217 -0.36043 7076 ft 239 kts 281°
2026-05-07 20:20 51.37546 -0.38658 7079 ft 239 kts 281°
2026-05-07 20:21 51.37876 -0.41256 7072 ft 238 kts 281°
2026-05-07 20:21 51.38204 -0.43862 7078 ft 239 kts 281°
2026-05-07 20:21 51.38528 -0.46470 7076 ft 239 kts 279°
2026-05-07 20:21 51.38683 -0.49084 7075 ft 239 kts 272°
2026-05-07 20:22 51.38731 -0.51737 7078 ft 238 kts 271°
2026-05-07 20:22 51.38768 -0.54390 7076 ft 238 kts 271°
2026-05-07 20:22 51.38803 -0.57043 6972 ft 237 kts 271°
2026-05-07 20:22 51.38839 -0.59697 6451 ft 239 kts 271°
2026-05-07 20:23 51.38872 -0.62370 5889 ft 240 kts 271°
2026-05-07 20:23 51.38905 -0.65044 5346 ft 241 kts 271°
2026-05-07 20:23 51.38936 -0.67655 4853 ft 240 kts 271°
2026-05-07 20:23 51.38968 -0.70319 4349 ft 239 kts 271°
2026-05-07 20:24 51.39001 -0.72963 4039 ft 237 kts 271°
2026-05-07 20:24 51.39035 -0.75598 3990 ft 237 kts 271°
2026-05-07 20:24 51.39184 -0.78222 3978 ft 237 kts 287°
2026-05-07 20:24 51.40042 -0.80425 3983 ft 235 kts 319°
2026-05-07 20:25 51.41457 -0.81571 3986 ft 233 kts 349°
2026-05-07 20:25 51.43056 -0.81794 3981 ft 224 kts 360°
2026-05-07 20:25 51.44549 -0.81815 3951 ft 204 kts
2026-05-07 20:25 51.45825 -0.81183 3890 ft 189 kts 38°
2026-05-07 20:26 51.46609 -0.79567 3600 ft 184 kts 65°
2026-05-07 20:26 51.47096 -0.77676 3302 ft 183 kts 70°
2026-05-07 20:26 51.47510 -0.75753 3026 ft 182 kts 78°
2026-05-07 20:26 51.47656 -0.73740 2992 ft 182 kts 89°
2026-05-07 20:27 51.47664 -0.71712 2983 ft 181 kts 91°
2026-05-07 20:27 51.47670 -0.69698 2811 ft 179 kts 90°
2026-05-07 20:27 51.47678 -0.67732 2522 ft 178 kts 91°
2026-05-07 20:27 51.47686 -0.65812 2258 ft 165 kts 91°
2026-05-07 20:28 51.47692 -0.64001 2039 ft 161 kts 91°
2026-05-07 20:28 51.47698 -0.62196 1824 ft 161 kts 91°
2026-05-07 20:28 51.47705 -0.60394 1607 ft 161 kts 91°
2026-05-07 20:28 51.47712 -0.58616 1392 ft 155 kts 91°
2026-05-07 20:29 51.47718 -0.56993 1167 ft 139 kts 91°
2026-05-07 20:29 51.47723 -0.55491 980 ft 132 kts 92°
2026-05-07 20:29 51.47728 -0.54022 807 ft 131 kts 92°
2026-05-07 20:29 51.47733 -0.52563 629 ft 130 kts 92°
2026-05-07 20:30 51.47745 -0.51115 403 ft 128 kts 91°
2026-05-07 20:30 51.47755 -0.49704 244 ft 127 kts 93°
2026-05-07 20:30 51.47758 -0.48291 118 ft 125 kts 92°
2026-05-07 20:30 51.47761 -0.46994 96 ft 98 kts 89°
2026-05-07 20:31 51.47757 -0.46185 96 ft 51 kts 89°
2026-05-07 20:31 51.47762 -0.45680 90 ft 40 kts 91°
2026-05-07 20:31 51.47694 -0.45476 92 ft 11 kts 163°
2026-05-07 20:31 51.47677 -0.45471 94 ft 0 kts 171°
2026-05-07 20:32 51.47671 -0.45470 93 ft 4 kts 173°
2026-05-07 20:33 51.47612 -0.45466 92 ft 13 kts 179°
2026-05-07 20:33 51.47520 -0.45504 96 ft 13 kts 232°
2026-05-07 20:33 51.47507 -0.45643 95 ft 13 kts 266°
2026-05-07 20:33 51.47514 -0.45797 95 ft 15 kts 274°
2026-05-07 20:34 51.47515 -0.45962 92 ft 15 kts 270°
2026-05-07 20:34 51.47518 -0.46133 92 ft 16 kts 271°
2026-05-07 20:34 51.47516 -0.46332 92 ft 19 kts 268°
2026-05-07 20:34 51.47515 -0.46538 93 ft 18 kts 271°
2026-05-07 20:35 51.47502 -0.46729 93 ft 17 kts 255°
2026-05-07 20:35 51.47494 -0.46910 95 ft 16 kts 269°
2026-05-07 20:35 51.47493 -0.47078 92 ft 15 kts 270°
2026-05-07 20:35 51.47490 -0.47235 93 ft 14 kts 267°
2026-05-07 20:36 51.47449 -0.47350 94 ft 12 kts 203°
2026-05-07 20:36 51.47373 -0.47352 93 ft 11 kts 179°
2026-05-07 20:36 51.47299 -0.47351 92 ft 12 kts 179°
2026-05-07 20:36 51.47198 -0.47350 94 ft 17 kts 181°
2026-05-07 20:37 51.47084 -0.47351 95 ft 16 kts 179°
2026-05-07 20:37 51.46979 -0.47350 95 ft 15 kts 180°
2026-05-07 20:37 51.46879 -0.47350 94 ft 16 kts 180°
2026-05-07 20:37 51.46774 -0.47350 93 ft 15 kts 179°
2026-05-07 20:38 51.46678 -0.47367 95 ft 13 kts 215°
2026-05-07 20:38 51.46638 -0.47476 97 ft 7 kts 216°
2026-05-07 20:38 51.46635 -0.47479 97 ft 0 kts 211°
2026-05-07 20:39 51.46633 -0.47480 97 ft 3 kts 209°
2026-05-07 20:39 51.46582 -0.47488 95 ft 12 kts 176°
2026-05-07 20:39 51.46482 -0.47489 95 ft 14 kts 179°
2026-05-07 20:39 51.46392 -0.47487 95 ft 8 kts 173°
2026-05-07 20:40 51.46360 -0.47463 97 ft 3 kts 140°
2026-05-07 20:40 51.46354 -0.47453 98 ft 1 kts 132°
2026-05-07 20:40 51.46352 -0.47448 98 ft 2 kts 129°
2026-05-07 20:40 51.46334 -0.47386 98 ft 10 kts 110°
2026-05-07 20:41 51.46305 -0.47289 93 ft 10 kts 137°
2026-05-07 20:41 51.46237 -0.47262 95 ft 10 kts 177°
2026-05-07 20:41 51.46172 -0.47270 94 ft 9 kts 201°
2026-05-07 20:41 51.46131 -0.47332 95 ft 7 kts 231°
2026-05-07 20:42 51.46113 -0.47369 96 ft 4 kts 234°
2026-05-07 20:42 51.46109 -0.47379 94 ft 0 kts 234°